* Astronomy

Members Login
Username 
 
Password 
    Remember Me  
Post Info TOPIC: TNO 2010 LP68


L

Posts: 131433
Date:
TNO 2010 LP68
Permalink  
 


Orbital elements:
2010 LP68
Epoch 2011 Aug. 27.0 TT = JDT 2455800.5                 MPC
M  48.23833              (2000.0)            P               Q
n   0.00451847     Peri.  298.11913     -0.92251523     +0.33865726
a  36.2361344      Node   262.17765     -0.25463687     -0.89451247
e   0.0290527      Incl.   10.77071     -0.29004432     -0.29181963
P 218              H    9.1           G   0.15           U   6

MPEC 2011 - M08

H = 9.1,  (40 - 90 km in diameter).



__________________
Page 1 of 1  sorted by
Quick Reply

Please log in to post quick replies.



Create your own FREE Forum
Report Abuse
Powered by ActiveBoard